User: anonymous   Login
Location: Girdwood
(60.9430°N, 149.1660°W)
Time: 18:39:00
(UTC-08:00)
Language:

Iridium 86 - Orbit

View from above orbital plane
View from above orbital plane
View from above satellite
View from above satellite

Ground track
Ground track

The orbit data is extracted from the following two-line orbital elements,

1 25528U 98066B   16207.31744543  .00000227  00000-0  73894-4 0  9994
2 25528  86.3984 126.4909 0002253  78.7468 281.3981 14.34215779932510
Epoch (UTC): 25 July 2016 07:37:07
Eccentricity: 0.0002253
inclination: 86.3984°
perigee height: 776 km
apogee height: 779 km
right ascension of ascending node: 126.4909°
argument of perigee: 78.7468°
revolutions per day: 14.34215779
mean anomaly at epoch: 281.3981°
orbit number at epoch: 93251

The dashed part of the orbit path shows where the satellite is in the earth's shadow,  

DLR